DW8222 Weather Reports


time (UTC)temp
C
wind
direction
speed
KPH
gust
KPH
rain 1hr
cm
rain 24hr
cm
rain mn
cm
humidity
%
barometer
mb
20260504214541 26 233 8.0 20.9 0.00 0.00 0.00 31 1006.3
20260504213033 26 280 11.3 25.7 0.00 0.00 0.00 31 1006.6
20260504211530 26 307 14.5 27.4 0.00 0.00 0.00 30 1006.6
20260504210029 26 236 9.7 20.9 0.00 0.00 0.00 29 1006.8
20260504204525 25 270 12.9 29.0 0.00 0.00 0.00 29 1006.9
20260504203026 26 263 11.3 29.0 0.00 0.00 0.00 33 1007.1
20260504201523 25 297 9.7 20.9 0.00 0.00 0.00 32 1007.2
20260504200021 25 257 6.4 19.3 0.00 0.00 0.00 29 1007.3
20260504194518 25 271 11.3 24.1 0.00 0.00 0.00 30 1007.4
20260504193018 25 302 11.3 25.7 0.00 0.00 0.00 31 1007.6
20260504191515 25 198 6.4 16.1 0.00 0.00 0.00 31 1007.5
20260504190013 25 276 8.0 20.9 0.00 0.00 0.00 34 1007.8
20260504184508 24 301 4.8 16.1 0.00 0.00 0.00 38 1007.8
20260504183005 23 277 9.7 16.1 0.00 0.00 0.00 39 1007.9
20260504181603 22 321 11.3 20.9 0.00 0.00 0.00 39 1008.1
20260504180057 22 302 8.0 22.5 0.00 0.00 0.00 41 1008.2
20260504174557 21 308 12.9 20.9 0.00 0.00 0.00 42 1008.3
20260504173050 21 293 6.4 19.3 0.00 0.00 0.00 43 1008.4
20260504171546 20 314 4.8 12.9 0.00 0.00 0.00 52 1008.5
20260504081552 8 285 1.6 3.2 0.00 0.00 0.00 81 1009.3
20260504070140 10 284 0.0 1.6 0.00 0.00 0.00 79 1009.2
20260504050024 16 122 0.0 1.6 0.00 0.00 0.00 55 1008.9
20260504044523 17 8 0.0 3.2 0.00 0.00 0.00 49 1008.9
20260504043024 18 281 0.0 3.2 0.00 0.00 0.00 46 1008.8
20260504041520 21 306 0.0 12.9 0.00 0.00 0.00 40 1008.6
20260504040018 22 279 9.7 24.1 0.00 0.00 0.00 33 1008.5
20260504034516 22 259 9.7 19.3 0.00 0.00 0.00 33 1008.2
20260504033014 22 277 9.7 19.3 0.00 0.00 0.00 33 1008.1
20260504031513 23 271 6.4 19.3 0.00 0.00 0.00 34 1008.0
20260504030014 23 253 8.0 16.1 0.00 0.00 0.00 34 1008.0
20260504024510 23 203 3.2 8.0 0.00 0.00 0.00 35 1007.9
20260504023009 22 207 1.6 9.7 0.00 0.00 0.00 35 1007.7
20260504021510 23 278 3.2 6.4 0.00 0.00 0.00 37 1007.7
20260504020003 23 249 3.2 6.4 0.00 0.00 0.00 41 1007.8
20260504014502 26 222 1.6 4.8 0.00 0.00 0.00 34 1007.8
20260504013059 26 269 0.0 9.7 0.00 0.00 0.00 31 1007.8
20260504011557 26 115 8.0 12.9 0.00 0.00 0.00 31 1007.8
20260504010059 26 124 8.0 14.5 0.00 0.00 0.00 28 1008.0
20260504004549 27 123 6.4 14.5 0.00 0.00 0.00 27 1008.2
20260504003044 27 88 4.8 11.3 0.00 0.00 0.00 27 1008.3
20260504001541 27 124 6.4 14.5 0.00 0.00 0.00 25 1008.4
20260504000037 27 136 3.2 11.3 0.00 0.00 0.00 25 1008.6
20260503234536 26 181 3.2 11.3 0.00 0.00 0.00 27 1008.8
20260503233028 26 105 8.0 11.3 0.00 0.00 0.00 27 1009.0
20260503231525 26 143 6.4 14.5 0.00 0.00 0.00 26 1009.2
20260503230022 27 101 1.6 12.9 0.00 0.00 0.00 26 1009.5
20260503224518 27 131 6.4 17.7 0.00 0.00 0.00 25 1009.7
20260503223016 27 105 1.6 6.4 0.00 0.00 0.00 26 1010.0
20260503221509 26 107 8.0 17.7 0.00 0.00 0.00 28 1010.2
20260503220019 26 85 6.4 12.9 0.00 0.00 0.00 29 1010.4